| time (UTC) | temp C | wind direction | speed KPH | gust KPH | rain 1hr cm | rain 24hr cm | rain mn cm | humidity % | barometer mb |
| 20260510182827 | 28 | 90 | 11.3 | 17.7 | 0.00 | 0.00 | 0.00 | 85 | 1013.2 |
| 20260510182336 | 28 | 152 | 4.8 | 12.9 | 0.00 | 0.00 | 0.00 | 85 | 1013.2 |
| 20260510181844 | 27 | 140 | 6.4 | 14.5 | 0.00 | 0.00 | 0.00 | 85 | 1013.3 |
| 20260510181328 | 27 | 105 | 8.0 | 17.7 | 0.00 | 0.00 | 0.00 | 85 | 1013.3 |
| 20260510180835 | 27 | 102 | 9.7 | 19.3 | 0.00 | 0.00 | 0.00 | 86 | 1013.2 |
| 20260510180321 | 27 | 127 | 14.5 | 19.3 | 0.00 | 0.00 | 0.00 | 86 | 1013.3 |
| 20260510175850 | 27 | 73 | 9.7 | 17.7 | 0.00 | 0.00 | 0.00 | 86 | 1013.4 |
| 20260510175331 | 27 | 55 | 6.4 | 20.9 | 0.00 | 0.00 | 0.00 | 86 | 1013.4 |
| 20260510174837 | 27 | 164 | 3.2 | 20.9 | 0.00 | 0.00 | 0.00 | 86 | 1013.4 |
| 20260510174320 | 27 | 71 | 8.0 | 19.3 | 0.00 | 0.00 | 0.00 | 86 | 1013.5 |
| 20260510173832 | 27 | 107 | 11.3 | 19.3 | 0.00 | 0.00 | 0.00 | 86 | 1013.6 |
| 20260510173337 | 27 | 144 | 8.0 | 20.9 | 0.00 | 0.00 | 0.00 | 87 | 1013.7 |
| 20260510172859 | 27 | 142 | 9.7 | 22.5 | 0.00 | 0.00 | 0.00 | 87 | 1013.7 |
| 20260510172322 | 27 | 167 | 4.8 | 17.7 | 0.00 | 0.00 | 0.00 | 87 | 1013.8 |
| 20260510171824 | 27 | 140 | 6.4 | 17.7 | 0.00 | 0.00 | 0.00 | 87 | 1013.9 |
| 20260510171329 | 27 | 145 | 4.8 | 20.9 | 0.00 | 0.00 | 0.00 | 87 | 1013.9 |
| 20260510170835 | 26 | 101 | 6.4 | 20.9 | 0.00 | 0.00 | 0.00 | 87 | 1014.0 |
| 20260510170346 | 26 | 147 | 3.2 | 14.5 | 0.00 | 0.00 | 0.00 | 87 | 1014.0 |
| 20260510165829 | 26 | 134 | 8.0 | 14.5 | 0.00 | 0.00 | 0.00 | 87 | 1014.1 |
| 20260510165330 | 26 | 86 | 6.4 | 17.7 | 0.00 | 0.00 | 0.00 | 87 | 1014.1 |
| 20260510164837 | 26 | 85 | 11.3 | 17.7 | 0.00 | 0.00 | 0.00 | 87 | 1014.2 |
| 20260510164344 | 26 | 148 | 4.8 | 14.5 | 0.00 | 0.00 | 0.00 | 87 | 1014.3 |
| 20260510163827 | 26 | 47 | 8.0 | 14.5 | 0.00 | 0.00 | 0.00 | 87 | 1014.2 |
| 20260510163332 | 26 | 75 | 6.4 | 14.5 | 0.00 | 0.00 | 0.00 | 88 | 1014.3 |
| 20260510162820 | 26 | 83 | 8.0 | 16.1 | 0.00 | 0.00 | 0.00 | 88 | 1014.3 |
| 20260510162350 | 26 | 106 | 8.0 | 16.1 | 0.00 | 0.00 | 0.00 | 88 | 1014.3 |
| 20260510161827 | 25 | 109 | 6.4 | 12.9 | 0.00 | 0.00 | 0.00 | 88 | 1014.4 |
| 20260510161332 | 25 | 78 | 8.0 | 14.5 | 0.00 | 0.00 | 0.00 | 88 | 1014.4 |
| 20260510160820 | 25 | 82 | 6.4 | 17.7 | 0.00 | 0.00 | 0.00 | 88 | 1014.5 |
| 20260510160324 | 25 | 104 | 11.3 | 17.7 | 0.00 | 0.00 | 0.00 | 88 | 1014.6 |
| 20260510155831 | 25 | 76 | 8.0 | 12.9 | 0.00 | 0.00 | 0.00 | 88 | 1014.5 |
| 20260510155343 | 25 | 5 | 6.4 | 14.5 | 0.00 | 0.00 | 0.00 | 88 | 1014.5 |
| 20260510154823 | 25 | 78 | 8.0 | 16.1 | 0.00 | 0.00 | 0.00 | 88 | 1014.5 |
| 20260510154326 | 25 | 44 | 6.4 | 16.1 | 0.00 | 0.00 | 0.00 | 88 | 1014.5 |
| 20260510153829 | 25 | 121 | 8.0 | 16.1 | 0.00 | 0.00 | 0.00 | 88 | 1014.5 |
| 20260510153335 | 25 | 109 | 8.0 | 16.1 | 0.00 | 0.00 | 0.00 | 88 | 1014.5 |
| 20260510152821 | 25 | 90 | 8.0 | 14.5 | 0.00 | 0.00 | 0.00 | 88 | 1014.4 |
| 20260510152321 | 25 | 120 | 8.0 | 17.7 | 0.00 | 0.00 | 0.00 | 88 | 1014.3 |
| 20260510151852 | 25 | 100 | 9.7 | 20.9 | 0.00 | 0.00 | 0.00 | 88 | 1014.4 |
| 20260510151338 | 25 | 70 | 12.9 | 20.9 | 0.00 | 0.00 | 0.00 | 88 | 1014.3 |
| 20260510150823 | 25 | 49 | 8.0 | 17.7 | 0.00 | 0.00 | 0.00 | 88 | 1014.4 |
| 20260510150323 | 25 | 121 | 11.3 | 20.9 | 0.00 | 0.00 | 0.00 | 88 | 1014.5 |
| 20260510145836 | 25 | 111 | 14.5 | 20.9 | 0.00 | 0.00 | 0.00 | 88 | 1014.5 |
| 20260510145339 | 24 | 133 | 3.2 | 20.9 | 0.00 | 0.00 | 0.00 | 89 | 1014.6 |
| 20260510144844 | 24 | 98 | 9.7 | 20.9 | 0.00 | 0.00 | 0.00 | 88 | 1014.6 |
| 20260510144325 | 24 | 90 | 8.0 | 19.3 | 0.00 | 0.00 | 0.00 | 89 | 1014.5 |
| 20260510143847 | 23 | 119 | 9.7 | 22.5 | 0.00 | 0.00 | 0.00 | 88 | 1014.4 |
| 20260510143357 | 23 | 96 | 11.3 | 22.5 | 0.00 | 0.00 | 0.00 | 88 | 1014.5 |
| 20260510142822 | 23 | 93 | 11.3 | 25.7 | 0.00 | 0.00 | 0.00 | 88 | 1014.5 |
| 20260510142325 | 23 | 97 | 14.5 | 25.7 | 0.00 | 0.00 | 0.00 | 88 | 1014.5 |
| 20260510141857 | 23 | 115 | 9.7 | 19.3 | 0.00 | 0.00 | 0.00 | 88 | 1014.6 |
| 20260510141321 | 23 | 91 | 11.3 | 20.9 | 0.00 | 0.00 | 0.00 | 88 | 1014.6 |
| 20260510140826 | 23 | 125 | 14.5 | 20.9 | 0.00 | 0.00 | 0.00 | 88 | 1014.5 |
| 20260510140329 | 23 | 107 | 9.7 | 19.3 | 0.00 | 0.00 | 0.00 | 88 | 1014.4 |
| 20260510135830 | 23 | 89 | 9.7 | 20.9 | 0.00 | 0.00 | 0.00 | 88 | 1014.4 |
| 20260510135335 | 23 | 108 | 11.3 | 20.9 | 0.00 | 0.00 | 0.00 | 87 | 1014.5 |
| 20260510134817 | 23 | 93 | 12.9 | 19.3 | 0.00 | 0.00 | 0.00 | 87 | 1014.7 |
| 20260510134349 | 22 | 121 | 8.0 | 20.9 | 0.00 | 0.00 | 0.00 | 87 | 1014.8 |
| 20260510133818 | 22 | 96 | 12.9 | 20.9 | 0.00 | 0.00 | 0.00 | 87 | 1014.8 |
| 20260510133345 | 22 | 68 | 6.4 | 17.7 | 0.00 | 0.00 | 0.00 | 87 | 1014.8 |
| 20260510132830 | 22 | 89 | 8.0 | 16.1 | 0.00 | 0.00 | 0.00 | 87 | 1014.7 |
| 20260510132339 | 22 | 51 | 11.3 | 16.1 | 0.00 | 0.00 | 0.00 | 87 | 1014.7 |
| 20260510131845 | 22 | 103 | 8.0 | 17.7 | 0.00 | 0.00 | 0.00 | 87 | 1014.7 |
| 20260510131330 | 22 | 65 | 6.4 | 14.5 | 0.00 | 0.00 | 0.00 | 87 | 1014.7 |
| 20260510130853 | 22 | 78 | 4.8 | 14.5 | 0.00 | 0.00 | 0.00 | 86 | 1014.6 |
| 20260510130317 | 22 | 75 | 6.4 | 12.9 | 0.00 | 0.00 | 0.00 | 86 | 1014.6 |
| 20260510125822 | 22 | 67 | 8.0 | 16.1 | 0.00 | 0.00 | 0.00 | 86 | 1014.6 |
| 20260510125348 | 22 | 67 | 8.0 | 14.5 | 0.00 | 0.00 | 0.00 | 86 | 1014.5 |
| 20260510124831 | 22 | 77 | 4.8 | 14.5 | 0.00 | 0.00 | 0.00 | 86 | 1014.2 |
| 20260510124356 | 21 | 78 | 6.4 | 14.5 | 0.00 | 0.00 | 0.00 | 86 | 1014.1 |
| 20260510123817 | 21 | 78 | 9.7 | 14.5 | 0.00 | 0.00 | 0.00 | 86 | 1014.2 |
| 20260510123329 | 21 | 55 | 8.0 | 14.5 | 0.00 | 0.00 | 0.00 | 86 | 1014.2 |
| 20260510022830 | 25 | 138 | 4.8 | 8.0 | 0.00 | 0.00 | 0.00 | 75 | 1009.3 |
| 20260510022345 | 25 | 136 | 4.8 | 11.3 | 0.00 | 0.00 | 0.00 | 75 | 1009.2 |
| 20260510021818 | 25 | 136 | 6.4 | 11.3 | 0.00 | 0.00 | 0.00 | 75 | 1009.2 |
| 20260510021329 | 25 | 121 | 6.4 | 11.3 | 0.00 | 0.00 | 0.00 | 75 | 1009.2 |
| 20260510020836 | 25 | 130 | 4.8 | 8.0 | 0.00 | 0.00 | 0.00 | 74 | 1009.1 |
| 20260510020322 | 26 | 128 | 4.8 | 8.0 | 0.00 | 0.00 | 0.00 | 74 | 1009.0 |
| 20260510015828 | 26 | 125 | 3.2 | 9.7 | 0.00 | 0.00 | 0.00 | 74 | 1008.9 |
| 20260510015352 | 26 | 125 | 4.8 | 9.7 | 0.00 | 0.00 | 0.00 | 74 | 1008.8 |
| 20260510014837 | 26 | 122 | 4.8 | 6.4 | 0.00 | 0.00 | 0.00 | 74 | 1008.7 |
| 20260510014351 | 26 | 115 | 4.8 | 6.4 | 0.00 | 0.00 | 0.00 | 74 | 1008.7 |
| 20260510013830 | 26 | 113 | 3.2 | 6.4 | 0.00 | 0.00 | 0.00 | 74 | 1008.6 |
| 20260510013335 | 27 | 113 | 3.2 | 4.8 | 0.00 | 0.00 | 0.00 | 74 | 1008.5 |
| 20260510012820 | 27 | 113 | 3.2 | 6.4 | 0.00 | 0.00 | 0.00 | 74 | 1008.4 |
| 20260510012322 | 27 | 113 | 4.8 | 6.4 | 0.00 | 0.00 | 0.00 | 74 | 1008.4 |
| 20260510011827 | 27 | 115 | 3.2 | 6.4 | 0.00 | 0.00 | 0.00 | 74 | 1008.4 |
| 20260510011333 | 27 | 115 | 3.2 | 6.4 | 0.00 | 0.00 | 0.00 | 74 | 1008.3 |
| 20260510010845 | 27 | 117 | 3.2 | 6.4 | 0.00 | 0.00 | 0.00 | 73 | 1008.3 |
| 20260510010332 | 28 | 117 | 3.2 | 6.4 | 0.00 | 0.00 | 0.00 | 74 | 1008.3 |
| 20260510005839 | 28 | 118 | 3.2 | 6.4 | 0.00 | 0.00 | 0.00 | 74 | 1008.2 |
| 20260510005343 | 28 | 133 | 4.8 | 6.4 | 0.00 | 0.00 | 0.00 | 74 | 1008.1 |
| 20260510004828 | 28 | 140 | 3.2 | 8.0 | 0.00 | 0.00 | 0.00 | 74 | 1008.1 |
| 20260510004353 | 28 | 142 | 4.8 | 8.0 | 0.00 | 0.00 | 0.00 | 74 | 1008.1 |
| 20260510003847 | 28 | 143 | 3.2 | 8.0 | 0.00 | 0.00 | 0.00 | 74 | 1008.0 |
| 20260510003329 | 29 | 150 | 3.2 | 8.0 | 0.00 | 0.00 | 0.00 | 74 | 1008.0 |
| 20260510002831 | 29 | 150 | 3.2 | 9.7 | 0.00 | 0.00 | 0.00 | 74 | 1007.9 |
| 20260510002336 | 29 | 150 | 3.2 | 9.7 | 0.00 | 0.00 | 0.00 | 74 | 1007.9 |
| 20260510001822 | 30 | 149 | 3.2 | 9.7 | 0.00 | 0.00 | 0.00 | 75 | 1007.9 |
| 20260510001323 | 30 | 149 | 3.2 | 8.0 | 0.00 | 0.00 | 0.00 | 75 | 1007.8 |
| 20260510000821 | 30 | 147 | 3.2 | 8.0 | 0.00 | 0.00 | 0.00 | 75 | 1007.8 |
| 20260510000333 | 30 | 146 | 3.2 | 8.0 | 0.00 | 0.00 | 0.00 | 75 | 1007.9 |
| 20260509235839 | 30 | 165 | 4.8 | 11.3 | 0.00 | 0.00 | 0.00 | 76 | 1007.8 |
| 20260509235342 | 30 | 142 | 4.8 | 12.9 | 0.00 | 0.00 | 0.00 | 76 | 1007.8 |
| 20260509234849 | 30 | 99 | 6.4 | 12.9 | 0.00 | 0.00 | 0.00 | 76 | 1007.7 |
| 20260509234333 | 30 | 146 | 4.8 | 12.9 | 0.00 | 0.00 | 0.00 | 76 | 1007.7 |
| 20260509233839 | 30 | 139 | 6.4 | 11.3 | 0.00 | 0.00 | 0.00 | 77 | 1007.8 |
| 20260509233319 | 30 | 115 | 3.2 | 9.7 | 0.00 | 0.00 | 0.00 | 77 | 1007.8 |
| 20260509232853 | 30 | 123 | 3.2 | 6.4 | 0.00 | 0.00 | 0.00 | 77 | 1007.8 |
| 20260509232357 | 30 | 124 | 4.8 | 9.7 | 0.00 | 0.00 | 0.00 | 77 | 1007.7 |
| 20260509231843 | 31 | 124 | 4.8 | 8.0 | 0.00 | 0.00 | 0.00 | 77 | 1007.7 |
| 20260509231325 | 31 | 126 | 1.6 | 6.4 | 0.00 | 0.00 | 0.00 | 78 | 1007.6 |
| 20260509230829 | 31 | 126 | 4.8 | 9.7 | 0.00 | 0.00 | 0.00 | 78 | 1007.6 |
| 20260509230331 | 31 | 126 | 4.8 | 9.7 | 0.00 | 0.00 | 0.00 | 79 | 1007.6 |
| 20260509225906 | 30 | 105 | 0.0 | 3.2 | 0.00 | 0.00 | 0.00 | 79 | 1007.6 |
| 20260509225346 | 30 | 105 | 1.6 | 3.2 | 0.00 | 0.00 | 0.00 | 79 | 1007.5 |
| 20260509224828 | 30 | 105 | 1.6 | 4.8 | 0.00 | 0.00 | 0.00 | 80 | 1007.5 |
| 20260509224354 | 30 | 105 | 1.6 | 4.8 | 0.00 | 0.00 | 0.00 | 80 | 1007.5 |
| 20260509223820 | 30 | 105 | 1.6 | 4.8 | 0.00 | 0.00 | 0.00 | 80 | 1007.5 |
| 20260509223327 | 30 | 105 | 3.2 | 4.8 | 0.00 | 0.00 | 0.00 | 80 | 1007.4 |
| 20260509222833 | 30 | 114 | 3.2 | 6.4 | 0.00 | 0.00 | 0.00 | 81 | 1007.3 |
| 20260509222347 | 30 | 360 | 1.6 | 6.4 | 0.00 | 0.00 | 0.00 | 81 | 1007.4 |
| 20260509221845 | 30 | 303 | 4.8 | 8.0 | 0.00 | 0.00 | 0.00 | 82 | 1007.3 |
| 20260509221327 | 30 | 298 | 4.8 | 6.4 | 0.00 | 0.00 | 0.00 | 82 | 1007.4 |
| 20260509220833 | 30 | 276 | 3.2 | 4.8 | 0.00 | 0.00 | 0.00 | 82 | 1007.5 |
| 20260509220338 | 30 | 5 | 3.2 | 4.8 | 0.00 | 0.00 | 0.00 | 82 | 1007.4 |
| 20260509215829 | 30 | 42 | 1.6 | 4.8 | 0.00 | 0.00 | 0.00 | 83 | 1007.5 |
| 20260509215329 | 30 | 47 | 0.0 | 4.8 | 0.00 | 0.00 | 0.00 | 83 | 1007.5 |
| 20260509214832 | 30 | 48 | 1.6 | 6.4 | 0.00 | 0.00 | 0.00 | 83 | 1007.5 |
| 20260509214336 | 30 | 47 | 1.6 | 12.9 | 0.00 | 0.00 | 0.00 | 83 | 1007.6 |
| 20260509213820 | 30 | 269 | 6.4 | 12.9 | 0.00 | 0.00 | 0.00 | 84 | 1007.7 |
| 20260509213323 | 30 | 323 | 4.8 | 9.7 | 0.00 | 0.00 | 0.00 | 84 | 1007.8 |
| 20260509212826 | 30 | 345 | 3.2 | 12.9 | 0.00 | 0.00 | 0.00 | 84 | 1007.8 |
| 20260509212337 | 30 | 300 | 3.2 | 12.9 | 0.00 | 0.00 | 0.00 | 84 | 1007.9 |
| 20260509211843 | 30 | 274 | 6.4 | 16.1 | 0.00 | 0.00 | 0.00 | 85 | 1007.8 |
| 20260509211327 | 30 | 270 | 4.8 | 16.1 | 0.00 | 0.00 | 0.00 | 85 | 1007.9 |
| 20260509210825 | 29 | 297 | 4.8 | 8.0 | 0.00 | 0.00 | 0.00 | 85 | 1007.9 |
| 20260509210332 | 29 | 272 | 4.8 | 8.0 | 0.00 | 0.00 | 0.00 | 86 | 1008.0 |
| 20260509205905 | 29 | 321 | 3.2 | 6.4 | 0.00 | 0.00 | 0.00 | 85 | 1008.0 |
| 20260509205324 | 29 | 304 | 3.2 | 6.4 | 0.00 | 0.00 | 0.00 | 86 | 1008.1 |
| 20260509204827 | 29 | 289 | 3.2 | 6.4 | 0.00 | 0.00 | 0.00 | 86 | 1008.2 |
| 20260509204330 | 29 | 290 | 3.2 | 8.0 | 0.00 | 0.00 | 0.00 | 86 | 1008.3 |
| 20260509203835 | 29 | 300 | 3.2 | 8.0 | 0.00 | 0.00 | 0.00 | 86 | 1008.5 |
| 20260509203320 | 29 | 242 | 3.2 | 9.7 | 0.00 | 0.00 | 0.00 | 87 | 1008.6 |
| 20260509202826 | 29 | 241 | 4.8 | 9.7 | 0.00 | 0.00 | 0.00 | 87 | 1008.7 |
| 20260509202326 | 29 | 286 | 3.2 | 11.3 | 0.00 | 0.00 | 0.00 | 87 | 1008.8 |
| 20260509201834 | 29 | 283 | 4.8 | 11.3 | 0.00 | 0.00 | 0.00 | 87 | 1008.8 |
| 20260509201320 | 29 | 311 | 3.2 | 11.3 | 0.00 | 0.00 | 0.00 | 87 | 1008.9 |
| 20260509200823 | 29 | 308 | 4.8 | 11.3 | 0.00 | 0.00 | 0.00 | 88 | 1008.9 |
| 20260509200336 | 30 | 284 | 3.2 | 17.7 | 0.00 | 0.00 | 0.00 | 88 | 1008.8 |
| 20260509195843 | 30 | 247 | 4.8 | 17.7 | 0.00 | 0.00 | 0.00 | 88 | 1008.8 |
| 20260509195344 | 30 | 313 | 4.8 | 12.9 | 0.00 | 0.00 | 0.00 | 89 | 1008.9 |
| 20260509194825 | 29 | 242 | 4.8 | 12.9 | 0.00 | 0.00 | 0.00 | 89 | 1008.9 |
| 20260509194331 | 29 | 220 | 4.8 | 16.1 | 0.00 | 0.00 | 0.00 | 89 | 1008.9 |
| 20260509193835 | 29 | 246 | 4.8 | 14.5 | 0.00 | 0.00 | 0.00 | 89 | 1008.9 |
| 20260509193346 | 29 | 324 | 6.4 | 14.5 | 0.00 | 0.00 | 0.00 | 90 | 1008.9 |
| 20260509192820 | 29 | 269 | 6.4 | 14.5 | 0.00 | 0.00 | 0.00 | 90 | 1009.0 |
| 20260509192329 | 28 | 227 | 6.4 | 14.5 | 0.00 | 0.00 | 0.00 | 90 | 1009.1 |
| 20260509191854 | 28 | 267 | 6.4 | 12.9 | 0.00 | 0.00 | 0.00 | 90 | 1009.1 |
| 20260509191320 | 28 | 249 | 8.0 | 12.9 | 0.00 | 0.00 | 0.00 | 90 | 1009.3 |
| 20260509190822 | 28 | 217 | 1.6 | 9.7 | 0.00 | 0.00 | 0.00 | 91 | 1009.3 |
| 20260509190333 | 28 | 318 | 3.2 | 9.7 | 0.00 | 0.00 | 0.00 | 91 | 1009.5 |
| 20260509185831 | 28 | 312 | 3.2 | 11.3 | 0.00 | 0.00 | 0.00 | 91 | 1009.6 |
| 20260509185333 | 27 | 284 | 1.6 | 6.4 | 0.00 | 0.00 | 0.00 | 91 | 1009.6 |
| 20260509184819 | 27 | 286 | 0.0 | 8.0 | 0.00 | 0.00 | 0.00 | 91 | 1009.7 |
| 20260509184326 | 27 | 286 | 6.4 | 8.0 | 0.00 | 0.00 | 0.00 | 91 | 1009.8 |
| 20260509183825 | 27 | 307 | 1.6 | 8.0 | 0.00 | 0.00 | 0.00 | 91 | 1009.7 |
| 20260509183331 | 27 | 310 | 4.8 | 8.0 | 0.00 | 0.00 | 0.00 | 91 | 1009.8 |